Location: Caltech
(34.1382°N, 118.1253°W)
Time: 23:39:01
(UTC-08:00)

Oscar 10/S400 - Visible Passes

Search period start: 25 February 2017 00:00
Search period end: 07 March 2017 00:00
Orbit: 4004 x 35443 km, 26.9° (Epoch: 24 February)

Date Brightness Start Highest point End Pass type
(mag) Time Alt. Az. Time Alt. Az. Time Alt. Az.
25 Feb ? 20:04:46 10° WSW 22:56:46 67° WSW 06:34:25 10° S visible
26 Feb ? 19:18:28 10° SW 22:24:25 75° SW 05:51:45 10° SSE visible
27 Feb ? 18:33:04 10° SW 22:20:31 81° SSW 05:08:24 10° SSE visible
28 Feb ? 17:48:22 10° SW 23:04:18 81° S 04:24:26 10° SE visible
01 Mar ? 17:04:17 10° SW 23:39:04 78° SSE 03:39:49 10° SE visible
02 Mar ? 16:20:44 10° SSW 23:36:21 72° SE 02:54:25 10° SE visible
03 Mar ? 15:37:43 10° SSW 23:09:29 64° ESE 02:08:03 10° SE visible
04 Mar ? 14:55:20 10° S 22:33:02 56° ESE 01:20:25 10° ESE visible
05 Mar ? 14:13:52 10° S 21:52:42 47° E 00:31:01 10° ESE visible
06 Mar ? 13:34:08 10° SSE 21:10:31 38° E 23:39:01 10° ESE visible
